{"data":{"norad_id":48130,"epoch":"2026-09-19T19:30:17.149536Z","epoch_age_seconds":88530,"freshness":"FRESH","line1":"1 48130U 21027AQ  26262.81269849  .00000887  00000+0  40342-4 0  9992","line2":"2 48130  53.1627 344.7703 0001723  79.3794 280.7401 15.31699290302228","mean_motion":15.3169929,"eccentricity":0.0001723,"inclination_deg":53.1627,"raan_deg":344.7703,"arg_perigee_deg":79.3794,"mean_anomaly_deg":280.7401,"bstar":4.0342e-5,"rev_number":30222,"period_min":94.013231539723,"perigee_km":469.56204982857,"apogee_km":471.92217357047,"semimajor_km":6848.8791116995,"source":"CELESTRAK","updated_at":"2026-09-20T09:00:38.767342Z"}}